This demonstration page uses our WeatherBlox Daily Observations layout. Learn more.

Left ArrowRight Arrow

Hourly Observations for July 27, 2015

Temp ( °F °C ) Dew Point ( °F °C ) Humidity (%) Winds ( mph kmh ) Pressure ( in mb ) Visibility ( mi km ) Precip ( " mm )
12:51 am 00:51 Clear 83 28.3 34 1.1 17 17 NNW 8 13 29.71 1006 10 16.0934 N/A
1:51 am 01:51 Clear 79 26.1 35 1.7 20 20 NNW 6 9 29.71 1006 10 16.0934 N/A
2:51 am 02:51 Clear 72 22.2 68 20 87 87 W 6 9 29.98 1015 10 16.0934 N/A
3:51 am 03:51 Clear 77 25 38 3.3 24 24 SE 3 6 29.72 1007 10 16.0934 N/A
4:51 am 04:51 Clear 80 26.7 41 5 25 25 NW 7 11 29.73 1007 10 16.0934 N/A
5:51 am 05:51 Sunny 79 26.1 44 6.7 29 29 N N/A 29.76 1008 10 16.0934 N/A
6:51 am 06:51 Mostly Sunny 82 27.8 65 18.3 56 56 NW 8 13 29.95 1014 10 16.0934 N/A
7:51 am 07:51 Sunny 86 30 49 9.4 28 28 NW 10 17 29.79 1009 10 16.0934 N/A
8:51 am 08:51 Sunny 88 31.1 49 9.4 26 26 NW 14 22 29.8 1009 10 16.0934 N/A
9:51 am 09:51 Mostly Sunny 91 32.8 72 22.2 54 54 NW 9 15 29.92 1013 10 16.0934 N/A
10:51 am 10:51 Sunny 93 33.9 45 7.2 19 19 WNW 12 19 29.79 1009 10 16.0934 N/A
11:51 am 11:51 Sunny 95 35 45 7.2 18 18 W 9 15 29.76 1008 10 16.0934 N/A
12:51 pm 12:51 Sunny 98 36.7 43 6.1 15 15 WNW 14 22 29.74 1007 10 16.0934 N/A
1:51 pm 13:51 Sunny 101 38.3 44 6.7 14 14 NW 13 20 29.71 1006 10 16.0934 N/A
2:51 pm 14:51 Partly Cloudy 99 37.2 48 8.9 18 18 W 12 19 29.7 1006 10 16.0934 N/A
3:51 pm 15:51 Mostly Sunny 100 37.8 47 8.3 16 16 W 12 19 29.67 1005 10 16.0934 N/A
4:51 pm 16:51 Mostly Sunny 79 26.1 66 18.9 65 65 W 14 22 29.99 1016 10 16.0934 N/A
5:51 pm 17:51 Mostly Sunny 99 37.2 46 7.8 16 16 NNW 12 19 29.65 1004 10 16.0934 N/A
6:51 pm 18:51 Sunny 96 35.6 47 8.3 19 19 WNW 16 26 29.66 1004 10 16.0934 N/A
7:51 pm 19:51 Clear 93 33.9 47 8.3 21 21 WNW 15 24 29.68 1005 10 16.0934 N/A
8:51 pm 20:51 Partly Cloudy 84 28.9 74 23.3 72 72 NW 12 19 29.96 1015 10 16.0934 N/A
9:51 pm 21:51 Clear 77 25 67 19.4 71 71 NW 12 19 30.01 1016 10 16.0934 N/A
10:51 pm 22:51 Clear 86 30 46 7.8 25 25 WNW 9 15 29.72 1006 10 16.0934 N/A
11:51 pm 23:51 Clear 84 28.9 47 8.3 27 27 WNW 9 15 29.73 1007 10 16.0934 N/A

Powered by AerisWeather